This demonstration page uses our WeatherBlox Daily Observations layout. Learn more.

Hourly Observations for October 8, 2020

Temp ( °F °C ) Dew Point ( °F °C ) Humidity (%) Winds ( mph kmh ) Pressure ( in mb ) Visibility ( mi km ) Precip ( " mm )
12:54 am 00:54 Clear 59 15 42 5.6 54 54 Calm 30.07 1018 10 16.0934 0 0
1:54 am 01:54 Clear 58 14.4 42 5.6 56 56 Calm 30.07 1018 10 16.0934 0 0
2:54 am 02:54 Clear 54 12.2 42 5.6 64 64 N 5 7 30.08 1019 10 16.0934 0 0
3:54 am 03:54 Clear 56 13.3 40 4.4 55 55 N 5 7 30.08 1019 10 16.0934 0 0
4:54 am 04:54 Clear 53 11.7 40 4.4 61 61 N 5 7 30.08 1019 10 16.0934 0 0
5:54 am 05:54 Clear 52 11.1 40 4.4 64 64 NE 3 6 30.08 1019 10 16.0934 0 0
6:54 am 06:54 Clear 51 10.6 39 3.9 64 64 N 5 7 30.1 1019 10 16.0934 0 0
7:54 am 07:54 Sunny 51 10.6 39 3.9 64 64 NE 5 7 30.11 1020 10 16.0934 0 0
8:54 am 08:54 Sunny 57 13.9 40 4.4 53 53 E 6 9 30.1 1019 10 16.0934 0 0
9:54 am 09:54 Sunny 64 17.8 39 3.9 40 40 ESE 10 17 30.09 1019 10 16.0934 0 0
10:54 am 10:54 Sunny 68 20 42 5.6 39 39 SE 14 22 30.07 1018 10 16.0934 0 0
11:54 am 11:54 Sunny 73 22.8 46 7.8 38 38 SE 9 15 30.05 1018 10 16.0934 0 0
12:54 pm 12:54 Sunny 76 24.4 50 10 40 40 SSE 13 20 30.01 1016 10 16.0934 0 0
1:54 pm 13:54 Sunny 81 27.2 53 11.7 38 38 SSE 12 19 29.98 1015 10 16.0934 0 0
2:54 pm 14:54 Sunny 83 28.3 57 13.9 41 41 SSE 15 24 29.93 1013 10 16.0934 0 0
3:54 pm 15:54 Sunny with Light Rain 84 28.9 58 14.4 41 41 SE 16 26 29.9 1013 10 16.0934 0.001 0.001
4:54 pm 16:54 Sunny 85 29.4 54 12.2 35 35 S 18 30 29.87 1012 10 16.0934 0.001 0.001
5:54 pm 17:54 Sunny 83 28.3 56 13.3 40 40 SSE 14 22 29.87 1012 10 16.0934 0 0
6:54 pm 18:54 Sunny 77 25 52 11.1 42 42 SSE 12 19 29.87 1012 10 16.0934 0 0
7:54 pm 19:54 Clear 74 23.3 53 11.7 48 48 SSE 9 15 29.87 1012 10 16.0934 0 0
8:54 pm 20:54 Clear 73 22.8 54 12.2 51 51 SSE 14 22 29.87 1012 10 16.0934 0 0
9:54 pm 21:54 Clear 72 22.2 54 12.2 53 53 S 14 22 29.86 1011 10 16.0934 0 0
10:54 pm 22:54 Clear 69 20.6 54 12.2 59 59 S 13 20 29.86 1011 10 16.0934 0 0
11:54 pm 23:54 Clear 69 20.6 54 12.2 59 59 S 12 19 29.85 1011 10 16.0934 0 0

Powered by AerisWeather